Find Starlink 11748

NORAD ID: 64373 Int'l Des: 2025-127 Owner: SPXS Country: US Constellation: starlink operational
別名: STARLINK-11748 [DTC] celestrak
LEOCIRCULAR

現在のビュー

3D地球を読み込み中...

About Starlink 11748

Starlink 11748 (NORAD 64373) is a starlink constellation satellite (v2 mini d2c) launched Jun 13, 2025 by SPXS of US. It operates in LEO, CIRCULAR orbit with a mass of 960.00 kg.

次回通過

Passes for default location (London). Set your location on the main map for personalized predictions.

高度履歴

Loading altitude history...

軌道要素

1 64373U 25127D 26235.82618058 .00140807 00000-0 10780-2 0 9994
2 64373 42.9995 157.5356 0001414 228.8860 131.1886 15.70936857 69788
Epoch: Aug 23, 2026 • Age: 40 hours

現在のステータス

高度 358.5 km
遠地点 / 近地点 N/A
速度 7.70 km/s
衛星直下点 41.66°N, 68.02°E
打ち上げ日 Jun 13, 2025
運用期間 1.1 years
タイプ internet

技術仕様

分類 Payload
質量 960.00 kg
乾燥質量 910.00 kg
総質量 960.00 kg
長さ 0.30 m
直径 4.10 m
スパン 29.00 m
形状 Box + pan
製造者 SPXS
バスタイプ Starlink V2MD
フェーズステータス In Orbit
所有者/国 SPXS/US

Most Searched